Date,TemperatureHighF,TemperatureAvgF,TemperatureLowF,DewpointHighF,DewpointAvgF,DewpointLowF,HumidityHigh,HumidityAvg,HumidityLow,PressureMaxIn,PressureMinIn,WindSpeedMaxMPH,WindSpeedAvgMPH,GustSpeedMaxMPH,PrecipitationSumIn
2013-3-1,43,35,29,-100,-100,-100,0,0,100,0.00,40.00,0,-999,0,0.00
2013-3-2,61,42,26,-100,-100,-100,0,0,100,0.00,40.00,0,-999,0,0.00
2013-3-3,72,53,35,-100,-100,-100,0,0,100,0.00,40.00,0,-999,0,0.00
2013-3-4,63,53,40,-100,-100,-100,0,0,100,0.00,40.00,0,-999,0,0.00
2013-3-5,49,40,31,-100,-100,-100,0,0,100,0.00,40.00,0,-999,0,0.00
2013-3-6,48,38,29,-100,-100,-100,0,0,100,0.00,40.00,0,-999,0,0.00
2013-3-7,67,52,35,-100,-100,-100,0,0,100,0.00,40.00,0,-999,0,0.00
2013-3-8,59,54,50,-100,-100,-100,0,0,100,0.00,40.00,0,-999,0,0.00
2013-3-9,67,59,44,-100,-100,-100,0,0,100,0.00,40.00,0,-999,0,0.22
2013-3-10,43,39,33,-100,-100,-100,0,0,100,0.00,40.00,0,-999,0,0.14
2013-3-11,63,41,24,-100,-100,-100,0,0,100,0.00,40.00,0,-999,0,0.00
2013-3-12,56,46,38,-100,-100,-100,0,0,100,0.00,40.00,0,-999,0,0.00
2013-3-13,63,48,34,-100,-100,-100,0,0,100,0.00,40.00,0,-999,0,0.00
2013-3-14,74,56,41,-100,-100,-100,0,0,100,0.00,40.00,0,-999,0,0.00
2013-3-15,84,64,45,-100,-100,-100,0,0,100,0.00,40.00,0,-999,0,0.00
2013-3-16,61,55,46,-100,-100,-100,0,0,100,0.00,40.00,0,-999,0,0.00
2013-3-17,54,42,35,-100,-100,-100,0,0,100,0.00,40.00,0,-999,0,0.00
2013-3-18,58,46,37,-100,-100,-100,0,0,100,0.00,40.00,0,-999,0,0.00
2013-3-19,57,48,38,-100,-100,-100,0,0,100,0.00,40.00,0,-999,0,0.00
2013-3-20,57,46,31,-100,-100,-100,0,0,100,0.00,40.00,0,-999,0,0.00
2013-3-21,71,54,42,-100,-100,-100,0,0,100,0.00,40.00,0,-999,0,0.00
2013-3-22,46,39,35,-100,-100,-100,0,0,100,0.00,40.00,0,-999,0,0.00
2013-3-23,40,38,32,-100,-100,-100,0,0,100,0.00,40.00,0,-999,0,0.01
2013-3-24,40,32,26,-100,-100,-100,0,0,100,0.00,40.00,0,-999,0,0.01
2013-3-25,45,34,25,-100,-100,-100,0,0,100,0.00,40.00,0,-999,0,0.00
2013-3-26,55,37,19,-100,-100,-100,0,0,100,0.00,40.00,0,-999,0,0.00
2013-3-27,72,54,40,-100,-100,-100,0,0,100,0.00,40.00,0,-999,0,0.00
2013-3-28,71,59,47,-100,-100,-100,0,0,100,0.00,40.00,0,-999,0,0.00
2013-3-29,70,60,46,-100,-100,-100,0,0,100,0.00,40.00,0,-999,0,0.00
2013-3-30,79,64,47,-100,-100,-100,0,0,100,0.00,40.00,0,-999,0,0.00
2013-3-31,66,59,51,-100,-100,-100,0,0,100,0.00,40.00,0,-999,0,0.56